Location: Carrer del Canonge
(41.4901°N, 2.2931°E)
Time: 13:47:25
(UTC+00:00)

Ariane Rocket - Pass Details

Date: 18 September 2020
Orbit: 760 x 770 km, 98.7° (Epoch: 29 October)

Event Time Altitude Azimuth Distance (km) Brightness Sun altitude
Exits shadow 19:49:57 22° 178° (S) 1,633 4.4 -21.9°
Maximum altitude 19:53:16 69° 257° (WSW) 816 3.2 -22.4°
Drops below altitude 10° 19:58:20 10° 342° (NNW) 2,311 6.0 -23.3°
Sets 20:00:40 0° 344° (NNW) 3,243 6.8 -23.7°
